UTA400 UUWW-UMMS

Flight info

Callsign UTA400
Flight time 1h 10m
Altitude 36000
Route POKAG3D POKAG N858 VEPIS T526 RUHAL RUHAL2H
Aircraft B735/M-SDE2E3FHIRW/S

Departure

Time 2026-04-29 07:29
Airport Vnukovo International Airport (UUWW)

Arrival

Time 2026-04-29 08:39
Airport Minsk National Airport (UMMS)
Time Latitude Longitude Altitude Speed Heading
2026-04-29 07:06 55.60020 37.28001 692 ft 0 kts 19°
2026-04-29 07:22 55.60022 37.28002 692 ft 1 kts 19°
2026-04-29 07:22 55.60041 37.28013 692 ft 4 kts 18°
2026-04-29 07:22 55.60071 37.28018 692 ft 1 kts 349°
2026-04-29 07:23 55.60088 37.27996 692 ft 4 kts 313°
2026-04-29 07:23 55.60109 37.27933 692 ft 7 kts 285°
2026-04-29 07:23 55.60087 37.27840 692 ft 10 kts 226°
2026-04-29 07:23 55.60036 37.27770 692 ft 8 kts 185°
2026-04-29 07:24 55.59983 37.27831 692 ft 11 kts 127°
2026-04-29 07:24 55.59945 37.27979 692 ft 15 kts 104°
2026-04-29 07:24 55.59936 37.28167 692 ft 12 kts 85°
2026-04-29 07:24 55.59932 37.28311 692 ft 12 kts 110°
2026-04-29 07:25 55.59885 37.28407 692 ft 8 kts 138°
2026-04-29 07:25 55.59873 37.28513 692 ft 11 kts 68°
2026-04-29 07:25 55.59906 37.28661 692 ft 14 kts 69°
2026-04-29 07:25 55.59944 37.28830 692 ft 8 kts 69°
2026-04-29 07:26 55.59936 37.28922 692 ft 6 kts 127°
2026-04-29 07:26 55.59925 37.28940 692 ft 0 kts 146°
2026-04-29 07:27 55.59924 37.28941 692 ft 1 kts 145°
2026-04-29 07:27 55.59909 37.28953 692 ft 3 kts 165°
2026-04-29 07:27 55.59872 37.28968 692 ft 7 kts 167°
2026-04-29 07:28 55.59815 37.28989 692 ft 7 kts 181°
2026-04-29 07:28 55.59778 37.28909 692 ft 12 kts 249°
2026-04-29 07:28 55.59666 37.28410 692 ft 83 kts 250°
2026-04-29 07:28 55.59359 37.27046 693 ft 155 kts 251°
2026-04-29 07:29 55.58920 37.25082 1113 ft 183 kts 252°
2026-04-29 07:29 55.58460 37.23046 1930 ft 186 kts 248°
2026-04-29 07:29 55.57726 37.20987 2356 ft 208 kts 234°
2026-04-29 07:29 55.56804 37.18947 2941 ft 219 kts 234°
2026-04-29 07:30 55.55850 37.16807 3622 ft 227 kts 234°
2026-04-29 07:30 55.55007 37.14508 4441 ft 224 kts 256°
2026-04-29 07:30 55.54870 37.11853 5255 ft 222 kts 271°
2026-04-29 07:31 55.54970 37.06430 6764 ft 225 kts 289°
2026-04-29 07:31 55.55797 37.04118 7493 ft 226 kts 318°
2026-04-29 07:31 55.57185 37.02855 8076 ft 237 kts 348°
2026-04-29 07:31 55.58806 37.02717 8653 ft 246 kts 356°
2026-04-29 07:32 55.60445 37.02685 9291 ft 250 kts 356°
2026-04-29 07:32 55.62402 37.02658 9799 ft 257 kts 357°
2026-04-29 07:32 55.64219 37.02519 9924 ft 252 kts 345°
2026-04-29 07:32 55.65873 37.01463 10015 ft 265 kts 335°
2026-04-29 07:33 55.67584 37.00202 9962 ft 270 kts 335°
2026-04-29 07:33 55.69307 36.98935 9970 ft 271 kts 335°
2026-04-29 07:33 55.71070 36.97640 9984 ft 273 kts 335°
2026-04-29 07:33 55.72793 36.96375 9992 ft 273 kts 335°
2026-04-29 07:34 55.74549 36.95054 10071 ft 275 kts 335°
2026-04-29 07:34 55.76274 36.93734 10732 ft 277 kts 335°
2026-04-29 07:34 55.78008 36.92406 11431 ft 279 kts 334°
2026-04-29 07:34 55.79783 36.91015 12103 ft 281 kts 330°
2026-04-29 07:35 55.81273 36.88891 12709 ft 282 kts 308°
2026-04-29 07:35 55.82186 36.85846 12928 ft 296 kts 285°
2026-04-29 07:35 55.82632 36.82294 13372 ft 305 kts 282°
2026-04-29 07:35 55.83069 36.78602 13808 ft 311 kts 282°
2026-04-29 07:36 55.83235 36.74768 13939 ft 311 kts 264°
2026-04-29 07:36 55.82623 36.71177 14297 ft 315 kts 247°
2026-04-29 07:36 55.81685 36.67759 14889 ft 317 kts 246°
2026-04-29 07:36 55.80700 36.64215 15481 ft 321 kts 246°
2026-04-29 07:37 55.79721 36.60701 16051 ft 324 kts 246°
2026-04-29 07:37 55.78713 36.57085 16624 ft 327 kts 246°
2026-04-29 07:37 55.77732 36.53571 17162 ft 330 kts 246°
2026-04-29 07:37 55.76716 36.49935 17703 ft 333 kts 246°
2026-04-29 07:38 55.75938 36.46139 18150 ft 336 kts 258°
2026-04-29 07:38 55.75377 36.41988 18350 ft 351 kts 259°
2026-04-29 07:38 55.74818 36.37781 18818 ft 359 kts 259°
2026-04-29 07:38 55.74240 36.33491 19399 ft 364 kts 258°
2026-04-29 07:39 55.73651 36.29156 19995 ft 367 kts 258°
2026-04-29 07:39 55.73054 36.24778 20604 ft 370 kts 258°
2026-04-29 07:39 55.72452 36.20398 21179 ft 374 kts 258°
2026-04-29 07:39 55.71839 36.15947 21738 ft 377 kts 258°
2026-04-29 07:40 55.71214 36.11428 22293 ft 381 kts 258°
2026-04-29 07:40 55.70588 36.06911 22825 ft 384 kts 258°
2026-04-29 07:40 55.69952 36.02341 23341 ft 388 kts 258°
2026-04-29 07:40 55.69309 35.97732 23851 ft 391 kts 258°
2026-04-29 07:41 55.68663 35.93121 24345 ft 395 kts 258°
2026-04-29 07:41 55.67996 35.88367 24844 ft 398 kts 258°
2026-04-29 07:41 55.67637 35.85817 25103 ft 400 kts 258°
2026-04-29 07:41 55.66971 35.81101 25565 ft 403 kts 258°
2026-04-29 07:42 55.66296 35.76326 26024 ft 406 kts 258°
2026-04-29 07:42 55.65603 35.71449 26495 ft 409 kts 258°
2026-04-29 07:42 55.64919 35.66638 26931 ft 412 kts 258°
2026-04-29 07:42 55.64217 35.61726 27355 ft 416 kts 258°
2026-04-29 07:43 55.63511 35.56799 27763 ft 419 kts 259°
2026-04-29 07:43 55.62991 35.51763 28171 ft 419 kts 266°
2026-04-29 07:43 55.62716 35.46674 28624 ft 421 kts 268°
2026-04-29 07:43 55.62454 35.41573 29138 ft 420 kts 268°
2026-04-29 07:44 55.62180 35.36504 29706 ft 419 kts 268°
2026-04-29 07:44 55.61890 35.31374 30192 ft 419 kts 266°
2026-04-29 07:44 55.61601 35.26341 30653 ft 419 kts 266°
2026-04-29 07:44 55.61304 35.21243 31149 ft 418 kts 267°
2026-04-29 07:45 55.61012 35.16177 31633 ft 417 kts 266°
2026-04-29 07:45 55.60717 35.11081 32102 ft 416 kts 266°
2026-04-29 07:45 55.60416 35.06047 32536 ft 415 kts 267°
2026-04-29 07:45 55.60116 35.01072 32956 ft 415 kts 266°
2026-04-29 07:46 55.59812 34.95978 33400 ft 414 kts 266°
2026-04-29 07:46 55.59510 34.90967 33813 ft 413 kts 266°
2026-04-29 07:46 55.59210 34.85951 34202 ft 412 kts 266°
2026-04-29 07:46 55.58917 34.81029 34599 ft 411 kts 266°
2026-04-29 07:47 55.58612 34.76015 34991 ft 410 kts 266°
2026-04-29 07:47 55.58312 34.71102 35322 ft 410 kts 266°
2026-04-29 07:47 55.58006 34.66121 35669 ft 409 kts 266°
2026-04-29 07:47 55.57700 34.61142 35972 ft 408 kts 266°
2026-04-29 07:48 55.57395 34.56201 36090 ft 409 kts 266°
2026-04-29 07:48 55.57084 34.51248 36105 ft 410 kts 266°
2026-04-29 07:48 55.56456 34.41335 36077 ft 409 kts 266°
2026-04-29 07:49 55.55822 34.31453 36045 ft 407 kts 265°
2026-04-29 07:49 55.55190 34.21669 36073 ft 407 kts 265°
2026-04-29 07:50 55.54542 34.11771 36074 ft 408 kts 265°
2026-04-29 07:50 55.53881 34.01845 36075 ft 407 kts 265°
2026-04-29 07:51 55.53217 33.92002 36072 ft 407 kts 265°
2026-04-29 07:51 55.52542 33.82129 36073 ft 407 kts 265°
2026-04-29 07:52 55.51868 33.72343 36078 ft 407 kts 265°
2026-04-29 07:52 55.51073 33.62487 36068 ft 408 kts 259°
2026-04-29 07:53 55.49619 33.52790 36081 ft 409 kts 258°
2026-04-29 07:53 55.48191 33.43162 36116 ft 409 kts 258°
2026-04-29 07:54 55.46775 33.33482 36137 ft 410 kts 257°
2026-04-29 07:54 55.45364 33.23838 36159 ft 410 kts 257°
2026-04-29 07:55 55.43936 33.14153 36154 ft 410 kts 257°
2026-04-29 07:55 55.42502 33.04492 36162 ft 408 kts 257°
2026-04-29 07:56 55.41090 32.95035 36156 ft 402 kts 257°
2026-04-29 07:56 55.39671 32.85592 36152 ft 398 kts 256°
2026-04-29 07:57 55.38266 32.76289 36144 ft 398 kts 256°
2026-04-29 07:57 55.36845 32.66932 36153 ft 400 kts 256°
2026-04-29 07:58 55.35397 32.57455 36155 ft 399 kts 256°
2026-04-29 07:58 55.33954 32.48069 36152 ft 399 kts 256°
2026-04-29 07:59 55.32501 32.38667 36154 ft 400 kts 256°
2026-04-29 07:59 55.31044 32.29287 36141 ft 399 kts 256°
2026-04-29 08:00 55.29589 32.19963 36155 ft 399 kts 256°
2026-04-29 08:00 55.28120 32.10617 36152 ft 400 kts 256°
2026-04-29 08:01 55.26637 32.01242 36155 ft 399 kts 256°
2026-04-29 08:01 55.25153 31.91906 36152 ft 400 kts 255°
2026-04-29 08:02 55.23666 31.82601 36158 ft 399 kts 256°
2026-04-29 08:02 55.22168 31.73282 36155 ft 399 kts 256°
2026-04-29 08:03 55.20664 31.63978 36154 ft 399 kts 255°
2026-04-29 08:03 55.19151 31.54667 36155 ft 399 kts 256°
2026-04-29 08:04 55.17645 31.45448 36156 ft 398 kts 255°
2026-04-29 08:04 55.16118 31.36153 36151 ft 400 kts 255°
2026-04-29 08:05 55.14592 31.26898 36152 ft 400 kts 255°
2026-04-29 08:05 55.13051 31.17611 36158 ft 399 kts 255°
2026-04-29 08:06 55.11515 31.08408 36158 ft 395 kts 254°
2026-04-29 08:06 55.09887 30.99363 36141 ft 392 kts 243°
2026-04-29 08:07 55.08354 30.95601 36159 ft 392 kts 228°
2026-04-29 08:07 55.06511 30.92191 36147 ft 394 kts 227°
2026-04-29 08:07 55.02770 30.85264 36154 ft 395 kts 228°
2026-04-29 08:08 54.99074 30.78241 36149 ft 398 kts 229°
2026-04-29 08:08 54.95344 30.71131 36155 ft 401 kts 229°
2026-04-29 08:09 54.91594 30.63999 36157 ft 404 kts 229°
2026-04-29 08:09 54.87794 30.56812 36162 ft 407 kts 230°
2026-04-29 08:10 54.84001 30.49673 36190 ft 408 kts 230°
2026-04-29 08:10 54.80169 30.42456 36186 ft 406 kts 230°
2026-04-29 08:11 54.78269 30.38882 36077 ft 404 kts 230°
2026-04-29 08:11 54.76383 30.35341 35400 ft 404 kts 230°
2026-04-29 08:11 54.74497 30.31795 34505 ft 410 kts 229°
2026-04-29 08:11 54.72609 30.28248 33673 ft 414 kts 229°
2026-04-29 08:12 54.70678 30.24632 32894 ft 416 kts 229°
2026-04-29 08:12 54.68772 30.21069 32133 ft 417 kts 229°
2026-04-29 08:12 54.66839 30.17465 31395 ft 417 kts 229°
2026-04-29 08:12 54.64903 30.13862 30622 ft 418 kts 229°
2026-04-29 08:13 54.62973 30.10276 29842 ft 420 kts 229°
2026-04-29 08:13 54.61002 30.06615 29079 ft 420 kts 229°
2026-04-29 08:13 54.59024 30.02953 28293 ft 420 kts 229°
2026-04-29 08:13 54.57074 29.99345 27627 ft 418 kts 229°
2026-04-29 08:14 54.55120 29.95737 27081 ft 412 kts 229°
2026-04-29 08:14 54.53175 29.92150 26549 ft 406 kts 229°
2026-04-29 08:14 54.51284 29.88666 26010 ft 402 kts 229°
2026-04-29 08:14 54.49399 29.85200 25453 ft 398 kts 229°
2026-04-29 08:15 54.47557 29.81817 24922 ft 393 kts 229°
2026-04-29 08:15 54.45744 29.78492 24399 ft 393 kts 229°
2026-04-29 08:15 54.44638 29.76465 24079 ft 397 kts 229°
2026-04-29 08:15 54.43001 29.73468 23601 ft 398 kts 229°
2026-04-29 08:16 54.41112 29.70018 23031 ft 394 kts 229°
2026-04-29 08:16 54.39269 29.66655 22487 ft 389 kts 229°
2026-04-29 08:16 54.37422 29.63289 21944 ft 385 kts 229°
2026-04-29 08:16 54.35628 29.60031 21422 ft 381 kts 229°
2026-04-29 08:17 54.33801 29.56731 20895 ft 377 kts 229°
2026-04-29 08:17 54.32036 29.53527 20372 ft 374 kts 229°
2026-04-29 08:17 54.30250 29.50275 19850 ft 371 kts 229°
2026-04-29 08:17 54.28505 29.47093 19344 ft 367 kts 229°
2026-04-29 08:18 54.26788 29.43966 18840 ft 364 kts 229°
2026-04-29 08:18 54.25055 29.40811 18334 ft 361 kts 229°
2026-04-29 08:18 54.23370 29.37747 17839 ft 358 kts 229°
2026-04-29 08:18 54.21658 29.34636 17340 ft 359 kts 228°
2026-04-29 08:19 54.19953 29.31535 16845 ft 363 kts 228°
2026-04-29 08:19 54.18247 29.28436 16346 ft 359 kts 227°
2026-04-29 08:19 54.16552 29.25367 15850 ft 356 kts 227°
2026-04-29 08:19 54.14862 29.22310 15357 ft 352 kts 227°
2026-04-29 08:20 54.13266 29.19182 14864 ft 347 kts 238°
2026-04-29 08:20 54.12193 29.15567 14382 ft 343 kts 246°
2026-04-29 08:20 54.11214 29.11905 13906 ft 340 kts 246°
2026-04-29 08:20 54.10231 29.08248 13434 ft 337 kts 246°
2026-04-29 08:21 54.09255 29.04636 12967 ft 334 kts 246°
2026-04-29 08:21 54.08290 29.01081 12509 ft 331 kts 246°
2026-04-29 08:21 54.07336 28.97574 12057 ft 327 kts 246°
2026-04-29 08:21 54.06390 28.94101 11608 ft 324 kts 246°
2026-04-29 08:22 54.05441 28.90626 11158 ft 321 kts 246°
2026-04-29 08:22 54.04510 28.87223 10718 ft 317 kts 245°
2026-04-29 08:22 54.03581 28.83828 10280 ft 314 kts 245°
2026-04-29 08:22 54.02670 28.80511 9950 ft 307 kts 245°
2026-04-29 08:23 54.01782 28.77279 9814 ft 294 kts 245°
2026-04-29 08:23 54.00945 28.74234 9812 ft 277 kts 245°
2026-04-29 08:23 54.00149 28.71343 9574 ft 271 kts 245°
2026-04-29 08:23 53.99340 28.68412 9172 ft 271 kts 245°
2026-04-29 08:24 53.98533 28.65515 8795 ft 270 kts 245°
2026-04-29 08:24 53.97745 28.62683 8535 ft 265 kts 245°
2026-04-29 08:24 53.96965 28.59880 8316 ft 258 kts 245°
2026-04-29 08:24 53.96205 28.57143 8096 ft 252 kts 246°
2026-04-29 08:25 53.95463 28.54476 7868 ft 247 kts 246°
2026-04-29 08:25 53.94736 28.51859 7640 ft 245 kts 246°
2026-04-29 08:25 53.93997 28.49203 7420 ft 254 kts 246°
2026-04-29 08:25 53.93241 28.46491 7183 ft 250 kts 246°
2026-04-29 08:26 53.92350 28.44003 6946 ft 246 kts 231°
2026-04-29 08:26 53.91226 28.41804 6639 ft 245 kts 231°
2026-04-29 08:26 53.90105 28.39617 6288 ft 246 kts 231°
2026-04-29 08:26 53.88960 28.37506 5947 ft 248 kts 221°
2026-04-29 08:27 53.87389 28.36412 5833 ft 245 kts 186°
2026-04-29 08:27 53.85735 28.36871 5631 ft 244 kts 154°
2026-04-29 08:27 53.84383 28.38604 5219 ft 249 kts 140°
2026-04-29 08:27 53.83059 28.40524 4789 ft 252 kts 140°
2026-04-29 08:28 53.81719 28.42479 4405 ft 250 kts 140°
2026-04-29 08:28 53.80414 28.44389 4120 ft 244 kts 139°
2026-04-29 08:28 53.79155 28.46232 4000 ft 236 kts 139°
2026-04-29 08:28 53.77927 28.48033 4014 ft 238 kts 139°
2026-04-29 08:29 53.76666 28.49884 4044 ft 236 kts 139°
2026-04-29 08:29 53.75433 28.51694 4029 ft 237 kts 139°
2026-04-29 08:29 53.74187 28.53522 4024 ft 237 kts 139°
2026-04-29 08:29 53.72937 28.55354 4023 ft 236 kts 139°
2026-04-29 08:30 53.71576 28.56856 4009 ft 235 kts 166°
2026-04-29 08:30 53.68614 28.55519 4028 ft 229 kts 230°
2026-04-29 08:30 53.67554 28.53516 4031 ft 230 kts 231°
2026-04-29 08:31 53.66497 28.51510 4029 ft 229 kts 231°
2026-04-29 08:31 53.65441 28.49492 4026 ft 229 kts 231°
2026-04-29 08:31 53.64401 28.47498 4023 ft 228 kts 231°
2026-04-29 08:31 53.63408 28.45377 4008 ft 224 kts 247°
2026-04-29 08:32 53.63235 28.42972 4055 ft 205 kts 286°
2026-04-29 08:32 53.63905 28.40909 4066 ft 201 kts 318°
2026-04-29 08:32 53.64948 28.39342 4062 ft 199 kts 319°
2026-04-29 08:32 53.65977 28.37800 4023 ft 199 kts 319°
2026-04-29 08:33 53.67019 28.36251 4012 ft 198 kts 320°
2026-04-29 08:33 53.68126 28.34885 3955 ft 195 kts 325°
2026-04-29 08:33 53.69228 28.33594 3702 ft 192 kts 325°
2026-04-29 08:33 53.70330 28.32304 3394 ft 193 kts 325°
2026-04-29 08:34 53.71429 28.31023 3120 ft 191 kts 325°
2026-04-29 08:34 53.72507 28.29843 2984 ft 182 kts 336°
2026-04-29 08:34 53.73585 28.28750 2928 ft 183 kts 315°
2026-04-29 08:34 53.74498 28.27272 2903 ft 182 kts 317°
2026-04-29 08:35 53.75426 28.25824 2910 ft 180 kts 318°
2026-04-29 08:35 53.76358 28.24407 2955 ft 181 kts 321°
2026-04-29 08:35 53.77335 28.23096 2930 ft 182 kts 313°
2026-04-29 08:35 53.78225 28.21672 2884 ft 169 kts 319°
2026-04-29 08:36 53.79068 28.20387 2811 ft 157 kts 319°
2026-04-29 08:36 53.79893 28.19138 2760 ft 160 kts 319°
2026-04-29 08:36 53.80726 28.17867 2668 ft 161 kts 319°
2026-04-29 08:36 53.81555 28.16609 2431 ft 160 kts 319°
2026-04-29 08:37 53.82370 28.15384 2178 ft 151 kts 320°
2026-04-29 08:37 53.83131 28.14251 1979 ft 139 kts 320°
2026-04-29 08:37 53.83821 28.13228 1818 ft 129 kts 321°
2026-04-29 08:37 53.84501 28.12226 1637 ft 128 kts 321°
2026-04-29 08:38 53.85170 28.11240 1460 ft 127 kts 321°
2026-04-29 08:38 53.85847 28.10268 1287 ft 126 kts 321°
2026-04-29 08:38 53.86507 28.09293 1133 ft 128 kts 320°
2026-04-29 08:38 53.87177 28.08299 979 ft 126 kts 321°
2026-04-29 08:39 53.87850 28.07311 783 ft 125 kts 321°
2026-04-29 08:39 53.88457 28.06406 688 ft 105 kts 317°
2026-04-29 08:39 53.88891 28.05756 688 ft 58 kts 323°
2026-04-29 08:39 53.89084 28.05476 688 ft 22 kts 320°
2026-04-29 08:40 53.89206 28.05291 688 ft 25 kts 318°
2026-04-29 08:40 53.89352 28.05076 688 ft 29 kts 317°
2026-04-29 08:40 53.89520 28.04824 688 ft 36 kts 319°
2026-04-29 08:40 53.89687 28.04514 688 ft 34 kts 294°
2026-04-29 08:41 53.89744 28.04270 688 ft 15 kts 282°
2026-04-29 08:41 53.89722 28.04177 688 ft 0 kts 205°
2026-04-29 08:42 53.89709 28.04171 688 ft 3 kts 179°
2026-04-29 08:42 53.89667 28.04198 688 ft 8 kts 144°
2026-04-29 08:42 53.89604 28.04288 688 ft 15 kts 139°
2026-04-29 08:43 53.89504 28.04438 688 ft 21 kts 142°
2026-04-29 08:43 53.89391 28.04602 688 ft 17 kts 139°
2026-04-29 08:43 53.89331 28.04640 688 ft 2 kts 189°
2026-04-29 08:43 53.89302 28.04602 688 ft 8 kts 220°
2026-04-29 08:44 53.89246 28.04620 688 ft 5 kts 139°
2026-04-29 08:44 53.89189 28.04605 688 ft 13 kts 221°
2026-04-29 08:44 53.89107 28.04455 688 ft 21 kts 227°
2026-04-29 08:44 53.89019 28.04290 688 ft 20 kts 229°
2026-04-29 08:45 53.88908 28.04077 688 ft 28 kts 229°
2026-04-29 08:45 53.88791 28.03851 688 ft 20 kts 229°
2026-04-29 08:45 53.88727 28.03720 688 ft 6 kts 258°
2026-04-29 08:45 53.88746 28.03664 688 ft 5 kts 311°
2026-04-29 08:46 53.88770 28.03625 688 ft 0 kts 319°